This demonstration page uses our WeatherBlox Daily Observations layout. Learn more.

Left ArrowRight Arrow

39.92423, -83.80882

Hourly Observations for January 1, 2021

Temp ( °F °C ) Dew Point ( °F °C ) Humidity (%) Winds ( mph kmh ) Pressure ( in mb ) Visibility ( mi km ) Precip ( " mm )
12:03 am 00:03 Cloudy 28 -2 27 -3 93 93 E 14 22 30.36 1028 8 12.87472 0 0
12:56 am 00:56 Cloudy 30 -1.1 28 -2.2 92 92 SE 13 20 30.37 1029 8 12.87472 0 0
1:56 am 01:56 Cloudy 29 -1.7 28 -2.2 96 96 E 16 26 30.31 1027 9 14.48406 0 0
2:38 am 02:38 Partly Cloudy 28 -2 28 -2 100 100 ESE 10 17 30.37 1029 8 12.87472 0 0
2:56 am 02:56 Mostly Cloudy 29 -1.7 28 -2.2 96 96 E 13 20 30.33 1027 8 12.87472 0 0
3:56 am 03:56 Cloudy 30 -1.1 29 -1.7 96 96 ENE 14 22 30.29 1026 8 12.87472 0 0
4:56 am 04:56 Cloudy 30 -1.1 28 -2.2 92 92 E 14 22 30.27 1025 9 14.48406 0.001 0.001
5:56 am 05:56 Cloudy 30 -1.1 28 -2.2 92 92 E 17 28 30.25 1024 10 16.0934 0.001 0.001
6:56 am 06:56 Cloudy with Light Wintry Mix 31 -0.6 29 -1.7 92 92 E 16 26 30.22 1023 9 14.48406 0.001 0.001
7:56 am 07:56 Cloudy with Light Snow 31 -0.6 31 -0.6 100 100 E 14 22 30.19 1022 6 9.65604 0.001 0.001
8:12 am 08:12 Cloudy with Light Freezing Rain 30 -1 30 -1 100 100 E 17 28 30.18 1022 5 8.0467 0.001 0.001
8:56 am 08:56 Cloudy with Light Freezing Rain 32 0 32 0 100 100 E 17 28 30.12 1020 4 6.43736 0.001 0.001
9:11 am 09:11 Cloudy with Light Snow 32 0 32 0 100 100 E 18 30 30.12 1020 2.5 4.02335 0.01 0.254
9:23 am 09:23 Cloudy with Light Snow 32 0 32 0 100 100 E 14 22 30.15 1021 3 4.82802 0.01 0.254
9:28 am 09:28 Cloudy with Light Snow 32 0 32 0 100 100 E 13 20 30.15 1021 2.5 4.02335 0.01 0.254
9:35 am 09:35 Cloudy with Light Snow 32 0 32 0 100 100 E 16 26 30.12 1020 2.5 4.02335 0.01 0.254
9:56 am 09:56 Cloudy with Light Snow 32 0 32 0 100 100 E 14 22 30.1 1019 2.5 4.02335 0.02 0.508
10:16 am 10:16 Cloudy with Light Freezing Rain 32 0 32 0 100 100 ESE 14 22 30.12 1020 3 4.82802 0.001 0.001
10:37 am 10:37 Cloudy with Light Wintry Mix 32 0 32 0 100 100 E 17 28 30.09 1019 3 4.82802 0.01 0.254
10:56 am 10:56 Cloudy with Light Wintry Mix 32 0 32 0 100 100 E 20 31 30.04 1017 2.5 4.02335 0.01 0.254
11:06 am 11:06 Cloudy with Light Wintry Mix 34 1 34 1 100 100 E 14 22 30.05 1018 4 6.43736 0.001 0.001
11:56 am 11:56 Cloudy with Light Wintry Mix 33 0.6 33 0.6 100 100 E 20 31 29.97 1015 6 9.65604 0.02 0.508
12:56 pm 12:56 Cloudy with Light Wintry Mix 34 1.1 34 1.1 100 100 ESE 17 28 29.91 1013 6 9.65604 0.01 0.254
1:56 pm 13:56 Cloudy with Light Rain 36 2.2 36 2.2 100 100 ESE 15 24 29.87 1012 10 16.0934 0.01 0.254
2:44 pm 14:44 Cloudy with Mist and Fog 37 3 37 3 100 100 ESE 10 17 29.87 1012 6 9.65604 0.02 0.508
2:56 pm 14:56 Cloudy with Mist and Fog 37 2.8 37 2.8 100 100 E 12 19 29.86 1011 5 8.0467 0.02 0.508
3:56 pm 15:56 Cloudy with Mist and Fog 38 3.3 38 3.3 100 100 E 9 15 29.82 1010 6 9.65604 0.01 0.254
4:49 pm 16:49 Cloudy with Mist and Fog 39 4 39 4 100 100 ESE 13 20 29.8 1009 1.75 2.816345 0.02 0.508
4:54 pm 16:54 Cloudy with Mist and Fog 39 4 39 4 100 100 ESE 12 19 29.79 1009 0.75 1.207005 0.02 0.508
4:56 pm 16:56 Cloudy with Mist and Fog 39 3.9 39 3.9 100 100 ESE 13 20 29.78 1009 0.75 1.207005 0.02 0.508
5:03 pm 17:03 Cloudy with Fog 39 4 39 4 100 100 ESE 13 20 29.79 1009 0.5 0.80467 0 0
5:11 pm 17:11 Cloudy with Fog 39 4 39 4 100 100 ESE 12 19 29.79 1009 0.25 0.402335 0 0
5:18 pm 17:18 Cloudy with Fog 39 4 39 4 100 100 ESE 12 19 29.78 1008 0.5 0.80467 0.01 0.254
5:31 pm 17:31 Cloudy with Fog 39 4 39 4 100 100 ESE 12 19 29.78 1008 0.25 0.402335 0.01 0.254
5:56 pm 17:56 Cloudy with Fog 41 5 41 5 100 100 SE 10 17 29.76 1008 0.5 0.80467 0.02 0.508
6:03 pm 18:03 Cloudy with Mist and Fog 41 5 41 5 100 100 ESE 10 17 29.75 1008 0.75 1.207005 0 0
6:08 pm 18:08 Cloudy with Mist and Fog 41 5 41 5 100 100 SE 13 20 29.75 1008 1.25 2.011675 0 0
6:21 pm 18:21 Cloudy with Mist and Fog 43 6 43 6 100 100 SE 13 20 29.74 1007 2 3.21868 0 0
6:40 pm 18:40 Cloudy with Mist and Fog 43 6 43 6 100 100 SE 13 20 29.72 1006 4 6.43736 0.02 0.508
6:56 pm 18:56 Cloudy 43 6.1 43 6.1 100 100 SE 13 20 29.71 1006 8 12.87472 0.02 0.508
7:29 pm 19:29 Cloudy with Light Rain 45 7 45 7 100 100 SE 14 22 29.68 1005 10 16.0934 0.02 0.508
7:49 pm 19:49 Cloudy with Heavy Rain 46 8 46 8 100 100 WSW 23 37 29.74 1007 4 6.43736 0.03 0.762
7:54 pm 19:54 Cloudy with Heavy Rain 46 8 46 8 100 100 SW 15 24 29.74 1007 3 4.82802 0.04 1.016
7:56 pm 19:56 Cloudy with Rain 48 8.9 48 8.9 100 100 SW 12 19 29.74 1007 3 4.82802 0.04 1.016
8:03 pm 20:03 Cloudy with Rain 48 9 48 9 100 100 WSW 12 19 29.74 1007 6 9.65604 0.001 0.001
8:23 pm 20:23 Cloudy with Light Rain 46 8 46 8 100 100 W 16 26 29.75 1007 6 9.65604 0 0
8:56 pm 20:56 Cloudy 45 7.2 45 7.2 100 100 W 17 28 29.78 1008 10 16.0934 0 0
9:15 pm 21:15 Cloudy 45 7 45 7 100 100 W 17 28 29.78 1009 10 16.0934 0 0
9:43 pm 21:43 Cloudy 45 7 45 7 100 100 W 10 17 29.78 1009 10 16.0934 0.02 0.508
9:56 pm 21:56 Cloudy 44 6.7 44 6.7 100 100 WSW 10 17 29.79 1009 10 16.0934 0.02 0.508
10:12 pm 22:12 Cloudy 45 7 45 7 100 100 WSW 9 15 29.78 1009 10 16.0934 0.02 0.508
10:36 pm 22:36 Cloudy 45 7 45 7 100 100 WSW 8 13 29.79 1009 10 16.0934 0.03 0.762
10:56 pm 22:56 Cloudy 45 7.2 45 7.2 100 100 WSW 13 20 29.8 1009 10 16.0934 0.04 1.016
11:56 pm 23:56 Cloudy 45 7.2 42 5.6 90 90 WSW 24 39 29.82 1010 10 16.0934 0.04 1.016

Powered by AerisWeather